Tracking 33744 objects as of 12-Apr-2026
HD Live streaming from Space Station
objects crossing your sky now

STARLINK-36931

Track STARLINK-36931 now!
10-day predictions
STARLINK-36931 is classified as:


NORAD ID: 68000
Int'l Code: 2026-039Q
Perigee: 489.3 km
Apogee: 491.0 km
Inclination: 43.0 °
Period: 94.3 minutes
Semi major axis: 6861 km
RCS: Unknown
Launch date: February 27, 2026
Source: United States (US)
Launch site: AIR FORCE WESTERN TEST RANGE (AFWTR)
Your satellite tracking list
Your tracking list is empty




NASA's NSSDC Master Catalog

Two Line Element Set (TLE):
1 68000U 26039Q   26102.33258003  .00018355  00000-0  67472-3 0  9990
2 68000  42.9987 218.4946 0001280 270.2672  89.8033 15.27587630  6850
Source of the keplerian elements: AFSPC